Weather History for KCDW - October, 2012

Change the Weather History Date:

Sunday, October 21, 2012

  Actual Average Record
Temperature  
Mean Temperature 56 °F -  
Max Temperature 66 °F 62 °F 79 °F (1969)
Min Temperature 48 °F 37 °F 22 °F (1972)
Degree Days  
Heating Degree Days 9    
Growing Degree Days 6 (Base 50)    
Moisture  
Dew Point 38 °F    
Average Humidity 56    
Maximum Humidity 74    
Minimum Humidity 33    
Precipitation  
Precipitation 0.00 in - - ()
Sea Level Pressure  
Sea Level Pressure 29.97 in    
Wind  
Wind Speed 6 mph (WNW)    
Max Wind Speed 14 mph    
Max Gust Speed 20 mph    
Visibility 10 miles    
Events      
Averages and records for this station are not official NWS values.
T = Trace of Precipitation, MM = Missing Value Source: NWS Daily Summary

Daily Weather History Graph

Daily Weather History Graph

Search for Another Location

Airport or City:

Trip Planner

Search our weather history database for the weather conditions in past years. The results will help you decide how hot, cold, wet, or windy it might be!

Date:

Astronomy

Oct. 21, 2012 Rise Set
Actual Time 7:15 AM EDT 6:07 PM EDT
Civil Twilight 6:47 AM EDT 6:34 PM EDT
Nautical Twilight 6:15 AM EDT 7:06 PM EDT
Astronomical Twilight 5:43 AM EDT 7:38 PM EDT
Moon 1:35 PM EDT (10/21) 11:57 PM EDT (10/21)
Length of Visible Light 11h 47m
Length of Day
10h 51m
Waxing Crescent, 45% of the Moon is Illuminated
Oct 21
Waxing Crescent
Oct 21
First Quarter
Oct 29
Full
Nov 6
Last Quarter
Nov 13
New

Hourly Weather History & Observations

Time (EDT) Temp. Dew Point Humidity Pressure Visibility Wind Dir Wind Speed Gust Speed Precip Events Conditions
12:53 AM 53.1 °F 37.9 °F 57% 29.88 in 10.0 mi WNW 8.1 mph - N/A   Clear
1:53 AM 52.0 °F 37.9 °F 59% 29.89 in 10.0 mi WNW 10.4 mph - N/A   Clear
2:53 AM 51.1 °F 39.0 °F 63% 29.90 in 10.0 mi WNW 8.1 mph - N/A   Clear
3:53 AM 51.1 °F 39.0 °F 63% 29.90 in 10.0 mi WNW 6.9 mph - N/A   Clear
4:53 AM 50.0 °F 39.0 °F 66% 29.91 in 10.0 mi WNW 3.5 mph - N/A   Clear
5:53 AM 48.9 °F 39.9 °F 71% 29.93 in 10.0 mi SSW 3.5 mph - N/A   Clear
6:53 AM 48.0 °F 39.9 °F 74% 29.96 in 10.0 mi Calm Calm - N/A   Clear
7:53 AM 48.0 °F 39.9 °F 74% 29.98 in 10.0 mi Calm Calm - N/A   Clear
8:53 AM 50.0 °F 41.0 °F 71% 30.00 in 10.0 mi Variable 3.5 mph - N/A   Clear
9:53 AM 55.0 °F 41.0 °F 59% 30.01 in 10.0 mi Variable 4.6 mph - N/A   Clear
10:53 AM 59.0 °F 39.9 °F 49% 30.00 in 10.0 mi WNW 12.7 mph 17.3 mph N/A   Clear
11:53 AM 61.0 °F 39.9 °F 46% 30.00 in 10.0 mi NNW 8.1 mph 16.1 mph N/A   Clear
12:53 PM 63.0 °F 37.0 °F 38% 29.98 in 10.0 mi WNW 13.8 mph 19.6 mph N/A   Clear
1:53 PM 64.9 °F 37.0 °F 36% 29.96 in 10.0 mi NNW 9.2 mph 17.3 mph N/A   Clear
2:53 PM 64.9 °F 36.0 °F 34% 29.96 in 10.0 mi NW 9.2 mph - N/A   Partly Cloudy
3:53 PM 64.9 °F 35.1 °F 33% 29.97 in 10.0 mi NW 9.2 mph 18.4 mph N/A   Scattered Clouds
4:53 PM 64.9 °F 35.1 °F 33% 29.97 in 10.0 mi WNW 10.4 mph - N/A   Mostly Cloudy
5:53 PM 62.1 °F 35.1 °F 37% 29.98 in 10.0 mi NW 5.8 mph - N/A   Clear
6:53 PM 60.1 °F 36.0 °F 41% 30.00 in 10.0 mi WNW 5.8 mph - N/A   Clear
7:53 PM 54.0 °F 37.9 °F 55% 30.01 in 10.0 mi Calm Calm - N/A   Clear
8:53 PM 50.0 °F 39.9 °F 68% 30.04 in 10.0 mi Calm Calm - N/A   Clear
9:53 PM 51.1 °F 39.9 °F 66% 30.05 in 10.0 mi Calm Calm - N/A   Clear
10:53 PM 50.0 °F 39.9 °F 68% 30.06 in 10.0 mi Calm Calm - N/A   Clear
11:53 PM 48.0 °F 39.9 °F 74% 30.06 in 10.0 mi Calm Calm - N/A   Clear